Погода Охоны

Поиск расширенной информации на нашем сайте:

Полезная информация:

Новости сайта



02.01.2020
Опубликован Долгосрочный прогноз погоды по городам России и ближнего зарубежья на январь 2020 года.
Карты: Прогноз на январь и февраль 2020 года, Сравнение прогнозируемой аномалии приземной температуры воздуха на январь 2020 года по разным моделям.




Погода Охоны - сегодня

Время (UTC), дата Ветер
(°,м/с) 
Видим.   Явления Облачность Т
(°С)
Тd
(°С)
f(%) Тe
(°С)
Pmin
(гПа)
dP
(гПа)
Po
(мм)
O2
(г/м3)
Тmin Tmax R s Состояние
почвы
06 29.11.20 100 (В) 20000 м    10/10 210 м 
[Frnb|Ns]
-3.5 -4.2 95 -5  1032.9  0.2  760  311  -3.6    0.0  12  равномерный
сухой снег
100% 
09 29.11.20 тихо ()   н/о    н/о 
-2.8 -3.5 95 -3  1032  -0.8  760  310           
12 29.11.20 тихо ()   н/о    н/о 
-2.3 -2.9 96 -2  1031.5  -0.5  759  309           
15 29.11.20 тихо ()   н/о    н/о 
-1.6 -2 97 -2  1031.1  -0.3  759  308           
18 29.11.20 100 (В) 10 км  слаб. снег  10/10 210 м 
[Frnb|Ns]
-0.7 -1.3 96 -3  1029.9  -1.1  758  307    -0.6  0.0     
21 29.11.20 тихо ()   н/о    н/о 
+0.2 -0.4 96 1029.4  -0.5  758  305           
00 30.11.20 110 (В) н/о    н/о 
+0.5 -0.1 96 1028.5  -0.8  757  305           
03 30.11.20 120 (ЮВ) н/о    н/о 
+0.8 +0.4 97 1027.8  -0.7  757  304  -1.5    0.2     
06 30.11.20 130 (ЮВ) 4000 м  дымка  10/10 120 м 
[Frnb|Ns]
+1.1 +0.8 98 1027.4  -0.4  757  304  -0.7    0.2  равномерный
мокрый или
старый снег
100% 
09 30.11.20 //0 (С) //  н/о    н/о 
             
12 30.11.20 140 (ЮВ) н/о    н/о 
+0.5 -0.1 96 -1  1025.7  755  304           
15 30.11.20 140 (ЮВ) н/о    н/о 
+0.2 -0.2 97 -2  1025.1  -0.6  755  304         
18 30.11.20 170 (Ю) 10 км  слаб. снег  10/10 240 м 
[Frnb|Ns]
+0.2 -0.2 97 -1  1025.2  0.1  755  304    +1.2     
21 30.11.20 160 (Ю) н/о    н/о 
+0.2 -0.2 97 +1  1025.5  0.3  755  304           
00 01.12.20 220 (ЮЗ) н/о    н/о 
-0.6 -1.7 92 1025.9  0.3  755  305           
03 01.12.20 150 (ЮВ) н/о    н/о 
-0.9 -1.7 94 -2  1026.2  0.3  756  306  -0.9    0.5     
06 01.12.20 160 (Ю) 20000 м    9/9 270 м кучево-дожд. 
[Cb cap]
-1 -1.8 94 -2  1027  0.8  756  306  -1    0.0  равномерный
мокрый или
старый снег
100% 
09 01.12.20 180 (Ю) н/о    н/о 
-0.8 -2 92 1028.5  1.5  757  306           
21 01.12.20 тихо ()   н/о    н/о 
-3 -3.4 97 -3  1033.3  761  310           
00 02.12.20 тихо ()   н/о    н/о 
-2.1 -2.7 96 -2  1034  0.8  761  309           
03 02.12.20 тихо ()   н/о    н/о 
-2 -2.7 95 -2  1034.1  0.1  761  309  -4.1         
06 02.12.20 190 (Ю) 20000 м    10/10 360 м 
[Frnb]
-2 -2.7 95 -1  1034.9  0.8  762  310  -4.1      равномерный
мокрый или
старый снег
100% 
09 02.12.20 190 (Ю) н/о    н/о 
-1.8 -2.9 92 -1  1035.4  0.5  762  310           
12 02.12.20 150 (ЮВ) н/о    н/о 
-2.2 -3.3 92 -2  1035.4  -0.1  762  310           
15 02.12.20 240 (ЮЗ) н/о    н/о 
-3.4 -4.4 93 -3  1035.4  762  312           
Время (UTC), дата Ветер
(°,м/с) 
Видим.   Явления Облачность Т
(°С)
Тd
(°С)
f(%) Тe
(°С)
Pmin
(гПа)
dP
(гПа)
Po
(мм)
O2
(г/м3)
Тmin Tmax R s Состояние
почвы

Для получения пояснительной информации подведите курсор к названию столбца.

ПОГОДА Охоны - архив

Всё, что Вы хотите узнать о погоде Охоны - удобно и подробно!

Выберите нужную дату (начиная с 1 января 2019* года) и нажмите кнопку "Найти".
Будут отображены архивные сводки погоды по пункту Охоны, начиная с указанной даты.


Отображать данные в формате CSV (для использования в таблицах Excel)


Внимание! Наш архив погоды предназначен исключительно для личного некоммерческого использования в познавательных целях. Если Вам необходимы официальные справки о состоянии погоды (для производственных, юридических, коммерческих и т.п. целей), обращайтесь в органы Росгидромета.

*Примечание: данная дата относится к архиву по метеостанциям СССР (Россия, СНГ, Балтия).
Архив по метеостанциям Зарубежной Европы и Азии (кроме Китая) хранится 10 дней, по другим регионам земного шара (Китай, Африка, Америка, Австралия, Океания) - 1 день.

Охоны - район местоположения метеостанции


Название, широта, долгота, высота метеостанции:
Охоны 58.6°ш. 35.6°д. 145 м над ур. моря [Российская Федерация]

Дополнительная информация

В oтличие oт бoльшинства пoгoдных сайтoв мы публикуем пoдрoбную метеoинфoрмацию в детальнoм прoфессиoнальнoм фoрмате.

Характеристики температуры и влажнoсти вoздуха измеряются на высoте 2 м в тени вдали oт зданий и деревьев.
Скoрoсть ветра измеряется на высoте 10 м (на урoвне рoста челoвека скoрoсть ветра ниже в 1.5-2 раза). Если метеoстанция нахoдится в гoрoде или в лесу, тo скoрoсть ветра занижена на 2-4 м/с пo сравнению с oткрытым местoм. Скoрoсть ветра над акватoриями крупных рек и oзёр, а также на вершинах хoлмoв на 2-5 м/с выше, чем в oбычных услoвиях.
Атмoсфернoе давление в разных тoчках местнoсти мoжет значительнo oтличаться oт давления на метеoстанции, в зависимoсти oт услoвий рельефа (при пoдъёме на 10 м давление пoнижается примернo на 1 мм рт.ст.).